Location: Saint Louis
(38.6272°N, 90.1978°W)
Time: 15:38:53
(UTC-05:00)

Hubble Space Telescope - Visible Passes

Search period start: 06 May 2016 00:00
Search period end: 16 May 2016 00:00
Orbit: 539 x 543 km, 28.5° (Epoch: 06 May)

Date Brightness Start Highest point End Pass type
(mag) Time Alt. Az. Time Alt. Az. Time Alt. Az.
06 May 2.6 05:07:37 12° SW 05:09:38 16° S 05:12:10 10° SSE visible
07 May 2.6 04:58:43 13° SSW 04:59:53 14° SSW 05:02:05 10° SSE visible
08 May 2.8 04:49:57 12° SSW 04:50:08 12° SSW 04:51:50 10° S visible
14 May 2.8 20:58:06 10° S 20:59:36 12° SSE 21:00:24 11° SSE visible
15 May 2.7 20:47:44 10° SSW 20:49:49 14° SSE 20:51:45 10° SE visible
